Retour au catalogue

BREEZE-M R/B

ActifMEO
NORAD 40259·ROCKET BODY·🇷🇺 Russia

Lancé Sep 27, 2014 depuis Baikonur Cosmodrome

Loading…

Prochains Passages (prochaines 24 heures)

TLE

FraisSource: Space-Track

Époque: Sep 14, 2026, 02:32 UTC

1 40259U 14058B   26257.10555728 -.00000191  00000-0  00000-0 0  9995
2 40259  10.7315  58.9057 0636256 200.6244 156.8180  0.91687269 40044

Suivez BREEZE-M R/B en temps réel avec AllMySat

Download on the App Store